FW9848 Weather Reports


Display with metric or nautical units.
time (UTC)temp
F
wind
direction
speed
MPH
gust
MPH
rain 1hr
in
rain 24hr
in
rain mn
in
humidity
%
barometer
mb
20260507180051 64 346 1.0 7.0 0.00 0.00 0.00 77 1018.7
20260507174556 64 266 2.0 7.0 0.00 0.00 0.00 77 1018.9
20260507173050 65 0 1.0 8.0 0.00 0.00 0.00 76 1019.1
20260507171549 65 326 4.0 11.0 0.00 0.00 0.00 75 1018.8
20260507170059 64 257 3.0 10.0 0.00 0.00 0.00 77 1018.8
20260507164559 63 269 3.0 9.0 0.00 0.00 0.00 79 1019.1
20260507163049 62 265 2.0 13.0 0.00 0.00 0.00 80 1019.0
20260507161548 61 34 4.0 13.0 0.00 0.00 0.00 80 1019.2
20260507160054 61 325 3.0 10.0 0.00 0.00 0.00 81 1018.7
20260507154554 61 207 1.0 9.0 0.00 0.01 0.00 82 1019.1
20260507153046 61 292 2.0 10.0 0.00 0.01 0.00 82 1018.6
20260507151550 60 271 3.0 12.0 0.00 0.01 0.00 82 1018.5
20260507150048 61 219 3.0 12.0 0.00 0.01 0.00 82 1018.3
20260507144549 61 279 4.0 15.0 0.00 0.01 0.00 83 1018.1
20260507143057 61 226 3.0 13.0 0.00 0.01 0.00 83 1017.9
20260507141554 61 49 5.0 12.0 0.00 0.01 0.00 83 1017.6
20260507140049 61 275 3.0 10.0 0.00 0.01 0.00 83 1018.4
20260507134549 61 277 3.0 11.0 0.00 0.01 0.00 83 1017.9
20260507133102 61 246 3.0 11.0 0.00 0.01 0.00 82 1017.8
20260507131553 62 257 4.0 9.0 0.00 0.01 0.00 81 1017.8
20260507130106 62 231 5.0 11.0 0.00 0.01 0.00 81 1017.8
20260507124548 62 23 3.0 11.0 0.00 0.01 0.00 80 1017.7
20260507123052 63 270 1.0 8.0 0.00 0.01 0.00 80 1017.7
20260507121604 63 231 1.0 8.0 0.00 0.01 0.00 80 1017.6
20260507120059 63 291 2.0 9.0 0.00 0.01 0.00 80 1017.3
20260507114627 63 223 2.0 9.0 0.00 0.01 0.00 80 1016.7
20260507113049 63 246 4.0 11.0 0.00 0.01 0.00 79 1016.5
20260507111552 63 273 4.0 11.0 0.00 0.01 0.00 79 1016.2
20260507110049 63 61 4.0 10.0 0.00 0.01 0.00 79 1015.9
20260507104550 63 244 2.0 11.0 0.00 0.01 0.00 79 1015.8
20260507103047 63 263 3.0 10.0 0.00 0.01 0.00 79 1016.0
20260507101548 63 294 3.0 12.0 0.00 0.01 0.00 79 1016.1
20260507100052 63 257 4.0 12.0 0.00 0.01 0.00 79 1015.9
20260507094552 63 240 2.0 10.0 0.00 0.01 0.00 79 1016.2
20260507093055 64 12 3.0 8.0 0.00 0.01 0.00 79 1016.1
20260507091553 64 249 2.0 9.0 0.00 0.01 0.00 80 1016.1
20260507090049 64 229 1.0 5.0 0.00 0.01 0.00 80 1016.2
20260507084601 64 0 2.0 9.0 0.00 0.01 0.00 80 1016.2
20260507083057 64 259 1.0 7.0 0.00 0.01 0.00 80 1016.3
20260507081548 64 268 1.0 6.0 0.00 0.01 0.00 80 1016.1
20260507080117 64 0 1.0 6.0 0.00 0.01 0.00 80 1016.4
20260507074549 64 234 1.0 6.0 0.00 0.01 0.00 80 1016.1
20260507073057 64 0 0.0 8.0 0.00 0.01 0.00 80 1016.5
20260507071550 64 204 2.0 6.0 0.00 0.01 0.00 80 1016.6
20260507070050 64 254 2.0 9.0 0.00 0.01 0.00 80 1016.8
20260507064548 64 279 3.0 10.0 0.00 0.01 0.00 80 1016.6
20260507063105 65 239 1.0 8.0 0.00 0.01 0.00 80 1016.4
20260507061552 64 302 2.0 7.0 0.00 0.01 0.00 80 1016.6
20260507060048 64 271 1.0 9.0 0.00 0.01 0.00 80 1016.3
20260507054551 64 230 3.0 11.0 0.00 0.01 0.00 80 1016.1
20260507053048 65 269 2.0 9.0 0.00 0.01 0.00 80 1015.9
20260507051555 65 17 2.0 11.0 0.00 0.01 0.00 80 1015.4
20260507040056 65 281 2.0 12.0 0.00 0.01 0.01 80 1015.3
20260507034558 65 249 2.0 10.0 0.00 0.01 0.01 80 1014.8
20260507033100 65 220 3.0 10.0 0.00 0.01 0.01 79 1014.6
20260507031556 66 270 2.0 11.0 0.00 0.01 0.01 79 1014.5
20260507030054 66 223 4.0 12.0 0.00 0.01 0.01 79 1014.6
20260507024607 66 257 2.0 8.0 0.00 0.01 0.01 78 1014.5
20260507023053 66 281 2.0 7.0 0.00 0.01 0.01 78 1014.5
20260507021553 67 293 4.0 10.0 0.00 0.01 0.01 77 1014.1
20260507020109 67 242 2.0 10.0 0.00 0.01 0.01 77 1014.0
20260507014554 68 198 1.0 9.0 0.00 0.01 0.01 76 1013.8
20260507013055 68 204 4.0 11.0 0.00 0.01 0.01 75 1012.9
20260507011548 69 259 2.0 9.0 0.00 0.01 0.01 75 1013.2
20260507010056 70 253 4.0 11.0 0.00 0.01 0.01 73 1013.1
20260507004605 71 283 4.0 9.0 0.00 0.01 0.01 72 1012.7
20260507003054 72 251 4.0 11.0 0.00 0.01 0.01 71 1012.7
20260507001552 74 221 2.0 10.0 0.00 0.01 0.01 70 1012.5
20260507000052 74 215 2.0 11.0 0.00 0.01 0.01 69 1012.3
20260506234551 75 214 4.0 11.0 0.00 0.01 0.01 68 1012.0
20260506233103 77 272 3.0 13.0 0.00 0.01 0.01 66 1011.9
20260506231600 80 273 3.0 10.0 0.00 0.01 0.01 63 1011.5
20260506230054 81 184 4.0 12.0 0.00 0.01 0.01 66 1011.2
20260506224554 82 49 3.0 10.0 0.00 0.01 0.01 68 1011.1
20260506223053 82 5 3.0 11.0 0.00 0.01 0.01 68 1011.0
20260506221553 82 274 3.0 9.0 0.00 0.01 0.01 67 1010.9
20260506220054 83 326 3.0 10.0 0.00 0.01 0.01 66 1010.9
20260506214554 86 288 5.0 10.0 0.00 0.01 0.01 61 1010.7
20260506213109 87 0 0.0 0.0 0.00 0.01 0.01 60 1010.6
20260506211549 89 0 0.0 0.0 0.00 0.01 0.01 59 1010.7
20260506210049 87 0 0.0 1.0 0.00 0.01 0.01 63 1010.8
20260506204550 87 0 0.0 0.0 0.00 0.01 0.01 62 1011.0
20260506203052 88 0 0.0 4.0 0.00 0.01 0.01 63 1011.1
20260506201549 88 0 0.0 0.0 0.00 0.01 0.01 62 1011.2
20260506200048 89 0 0.0 0.0 0.00 0.01 0.01 61 1011.5
20260506194549 86 0 0.0 0.0 0.00 0.01 0.01 65 1011.6
20260506193051 85 62 0.0 3.0 0.00 0.01 0.01 68 1011.7
20260506191555 86 0 0.0 0.0 0.00 0.01 0.01 68 1011.8
20260506190053 85 0 0.0 0.0 0.00 0.01 0.01 72 1011.9
20260506184609 84 0 0.0 0.0 0.00 0.01 0.01 71 1012.1
20260506183103 83 0 0.0 0.0 0.00 0.01 0.01 75 1012.3
20260506181612 82 0 0.0 4.0 0.00 0.01 0.01 76 1012.5